Hourly Data Report for November 07, 2019

All times are specified in Local Standard Time (LST). Add 1 hour to adjust for Daylight Saving Time where and when it is observed.

HOPE A
BRITISH COLUMBIA
Current Station Operator: NAVCAN

49°22'06.000" N
121°29'53.000" W
39.00 m
1113542
71187
YHE

Download Data

Hourly Data (November 2019)
Hourly Data Report for November 7, 2019
TIME Temp Definition
°C
Dew Point Definition
°C
Rel Hum Definition
%
Wind Dir Definition
10's deg

Wind Spd Definition
km/h
Visibility Definition
km
Stn Press Definition
kPa
Hmdx Definition


Wind Chill Definition


Weather Definition


00:00 6.1 -0.8 61 8 18 16.1 102.27     LegendNANA
01:00 5.8 -1.1 61 10 24 16.1 102.26     LegendNANA
02:00 5.7 -1.0 62 9 18 16.1 102.30     LegendNANA
03:00 5.0 -1.0 65 10 24 16.1 102.27     LegendNANA
04:00 4.7 -0.9 67 9 18 16.1 102.23     LegendNANA
05:00 4.8 -1.0 66 11 22 16.1 102.26     LegendNANA
06:00 4.5 -1.1 67 10 28 16.1 102.26     LegendNANA
07:00 3.9 -1.1 70 9 18 16.1 102.26     LegendNANA
08:00 4.2 -1.0 69 10 26 16.1 102.29     LegendNANA
09:00 5.1 -0.5 67 11 26 16.1 102.28     LegendNANA
10:00 6.2 -0.4 63 9 21 16.1 102.22     LegendNANA
11:00 7.5 0.4 61 10 18 16.1 102.15     LegendNANA
12:00 8.5 0.3 56 11 21 16.1 102.05     LegendNANA
13:00 9.1 0.0 53 9 17 16.1 101.97     LegendNANA
14:00 9.9 0.6 52 11 17 16.1 101.92     LegendNANA
15:00 9.6 0.5 53 10 17 16.1 101.89     LegendNANA
16:00 9.1 0.6 55 9 15 16.1 101.83     LegendNANA
17:00 7.9 1.1 62 10 15 16.1 101.85     LegendNANA
18:00 7.1 1.5 68 9 15 16.1 101.85     LegendNANA
19:00 6.6 1.5 70 10 13 16.1 101.84     LegendNANA
20:00 6.0 1.7 74 9 13 16.1 101.86     LegendNANA
21:00 5.3 1.8 78 9 13 16.1 101.86     LegendNANA
22:00 5.1 1.8 79 10 11 16.1 101.89     LegendNANA
23:00 4.3 1.8 84 10 15 16.1 101.87     LegendNANA

Notes on Data Quality.

Legend

  • E = Estimated
  • M = Missing
  • NA = Not Available
Date modified: